{"data":{"norad_id":45417,"epoch":"2026-09-20T00:34:05.231424Z","epoch_age_seconds":55699,"freshness":"FRESH","line1":"1 45417U 20019BK  26263.02367166  .00117562  00000+0  64203-3 0  9992","line2":"2 45417  53.0369 258.6143 0003478  33.9519 326.1723 15.79049855360635","mean_motion":15.79049855,"eccentricity":0.0003478,"inclination_deg":53.0369,"raan_deg":258.6143,"arg_perigee_deg":33.9519,"mean_anomaly_deg":326.1723,"bstar":0.00064203,"rev_number":36063,"period_min":91.194080759407,"perigee_km":330.79730719619,"apogee_km":335.46566555532,"semimajor_km":6711.2684863758,"source":"CELESTRAK","updated_at":"2026-09-20T09:00:38.444706Z"}}